Dewpoint
66 65 64 65 65 65 64 63 63 62 62 62 61 60 59 57 58 59 59 59 60 59 58 58 56 57 57 56 56 55 54 54 54 54 55 54 53 52 52 52 51 50 50
66 65 64 64 64 64 64 63 63 62 62 62 62 60 57 57 57 58 59 59 59 59 57 57 56 56 57 56 55 55 54 53 54 54 54 54 53 53 52 51 50 49 49
66 64 64 64 63 64 64 63 63 62 60 60 59 60 56 56 56 57 58 58 58 58 58 58 58 57 56 56 55 54 53 53 53 54 54 53 53 52 52 51 51 50 50
66 65 64 64 63 63 63 63 61 60 59 60 60 58 56 55 56 56 57 58 58 58 58 58 57 57 57 55 53 54 53 54 53 53 53 53 53 53 53 52 52 51 51
66 65 64 64 63 63 63 62 60 59 59 60 59 60 57 54 55 56 56 57 56 57 57 58 57 56 56 55 54 53 54 53 53 53 54 53 53 53 53 53 53 54 54
66 65 64 64 63 62 62 61 59 60 59 58 59 58 57 54 55 56 55 56 55 57 57 57 57 56 56 56 55 54 54 54 54 54 54 54 54 54 54 54 54 54 55
67 65 64 64 63 61 61 60 60 59 59 59 59 57 57 54 52 55 55 55 54 55 56 56 56 55 55 56 56 54 54 54 54 54 53 54 54 55 55 56 56 56 56
67 66 65 64 63 62 61 60 59 59 58 59 56 55 53 52 50 53 52 53 54 54 55 55 55 54 54 56 56 56 55 54 54 54 54 55 55 56 56 57 57 57 58
66 66 65 64 63 62 61 60 59 58 57 59 58 53 50 49 50 52 51 52 52 53 55 54 54 53 54 55 56 56 56 56 56 55 56 57 57 58 58 58 58 58 58
66 66 65 64 63 62 61 60 60 58 57 56 58 56 52 51 49 48 51 51 51 52 54 54 53 53 53 54 55 55 55 55 56 57 58 57 57 57 56 56 55 56 56
65 65 64 63 63 62 61 61 60 58 57 56 57 56 53 51 50 48 47 49 52 50 53 53 53 52 52 53 54 54 54 54 55 55 55 55 55 55 54 54 55 55 54
63 64 63 63 62 62 61 60 60 59 58 56 56 56 52 50 49 49 47 47 48 50 51 52 52 53 52 52 52 52 53 52 53 53 53 53 53 53 54 54 53 52 50
61 61 63 62 61 61 61 60 60 59 58 57 56 57 55 53 51 50 49 48 48 50 51 53 54 52 49 49 49 50 50 51 51 51 52 51 50 50 50 50 48 46 46
60 61 61 61 61 61 60 60 60 59 59 58 57 58 56 55 52 51 49 47 48 49 51 51 47 47 46 46 46 46 46 47 46 46 46 45 45 44 42 41 39 38 37
60 61 61 62 61 61 60 60 59 59 59 59 57 57 57 56 55 52 50 49 48 48 48 51 47 45 44 43 43 43 42 42 41 41 40 39 37 35 33 32 32 32 35
60 59 59 59 59 59 59 59 59 59 58 58 58 57 57 56 56 55 52 51 49 48 48 49 45 43 41 41 41 39 38 37 35 34 33 32 31 31 30 29 29 30 31
60 59 58 57 57 57 57 58 58 58 57 58 58 57 57 57 56 56 55 53 51 49 48 42 42 40 39 38 37 36 35 33 33 32 31 30 28 27 27 26 26 28 28
60 59 58 57 56 56 57 56 56 57 57 56 57 57 57 57 55 56 56 54 53 52 49 42 39 38 36 36 35 33 33 33 32 30 29 26 23 23 23 22 23 24 23
60 59 58 56 56 56 56 56 56 56 57 56 56 57 57 56 55 56 56 55 53 51 48 43 39 37 35 35 33 32 31 30 31 30 27 25 20 18 20 20 21 21 21
60 59 58 57 56 56 55 55 55 56 56 57 56 56 56 56 56 56 55 54 52 49 46 42 37 34 33 33 32 28 27 27 25 25 27 26 23 19 18 18 19 19 20
60 60 59 58 57 56 55 55 55 55 55 56 56 56 56 56 56 56 55 53 50 46 42 39 35 32 30 30 30 30 26 25 22 23 22 22 24 26 25 17 16 16 15
59 58 59 58 58 56 55 54 55 54 54 54 54 55 55 55 55 55 55 53 50 46 42 40 38 34 31 32 29 29 25 23 23 17 20 18 15 16 15 14 14 13 13
57 56 55 54 52 50 50 52 53 53 53 52 53 49 44 47 47 45 42 41 41 43 43 41 40 35 31 30 30 28 28 27 22 13 20 12 13 12 10 12 12 12 14
54 51 49 47 45 41 43 45 44 41 39 37 38 39 40 38 39 40 40 35 32 33 35 35 35 31 29 30 30 29 25 16 13 13 23 19 14 9 11 14 11 13 15
47 45 42 41 40 36 36 37 39 35 33 32 33 33 33 34 34 37 34 30 29 28 31 31 30 30 30 29 27 23 20 20 21 13 11 19 10 7 9 11 11 16 16
42 39 37 36 35 34 35 35 35 32 30 29 30 31 32 32 32 33 31 28 25 25 26 26 26 27 27 27 26 25 24 23 20 14 8 16 9 10 11 13 11 14 16
Wind_Speed
18 17 15 15 15 15 16 15 15 14 14 14 10 14 11 15 15 12 13 21 20 19 20 20 19 19 19 18 18 17 17 16 16 16 16 14 14 13 13 12 11 9 9
16 18 17 16 16 18 16 16 15 12 10 8 8 6 10 17 17 14 14 17 21 20 19 20 20 19 18 18 19 17 16 15 15 15 14 13 13 12 11 10 8 7 5
18 18 18 18 17 16 16 15 14 15 13 8 7 14 5 19 19 17 15 14 18 20 20 20 20 19 18 18 18 17 16 15 14 14 12 11 11 10 9 8 6 4 2
20 19 18 18 18 16 17 15 14 11 11 9 13 21 10 17 18 19 16 16 15 14 19 20 20 20 19 18 17 17 16 14 14 13 11 10 9 8 7 6 4 1 1
21 20 18 17 19 18 18 16 15 18 14 12 13 15 5 19 19 17 16 16 16 14 13 18 19 19 19 18 17 17 16 15 14 13 12 9 8 7 6 5 3 4 4
20 20 18 19 20 18 17 17 20 14 15 17 14 12 8 11 18 18 18 16 15 16 15 14 15 17 19 17 16 16 16 15 14 13 12 11 9 8 8 6 6 6 7
19 19 17 20 18 21 21 21 16 21 13 14 9 9 10 12 18 18 18 17 16 17 17 17 15 14 16 19 17 16 17 16 15 13 12 11 12 11 10 9 9 9 10
18 19 20 19 20 18 20 21 21 14 9 18 14 17 12 8 10 18 18 18 19 17 16 17 17 17 16 14 15 17 16 17 15 13 13 14 12 10 10 10 11 12 12
17 18 21 21 21 20 22 23 23 22 19 15 14 14 11 11 11 7 19 18 20 18 17 18 17 16 17 16 18 18 16 12 12 14 14 12 12 9 6 3 2 4 5
17 17 20 21 21 18 21 23 21 21 21 22 15 19 11 14 26 16 9 16 19 19 19 17 18 16 17 16 19 20 22 18 12 6 4 5 5 5 4 3 4 4 4
17 18 18 18 19 18 19 22 22 22 22 23 25 24 19 16 24 20 23 15 13 15 19 19 17 16 18 15 15 16 21 20 13 8 6 6 6 7 7 6 7 14 13
14 17 17 18 18 19 20 21 20 23 23 20 23 24 27 24 28 20 20 22 21 14 15 17 18 12 13 13 9 16 18 16 15 16 14 12 10 11 15 17 15 17 15
15 19 19 19 18 20 18 21 22 24 26 25 24 23 26 17 21 22 22 19 19 7 8 10 5 14 14 13 15 20 20 23 22 23 23 23 20 18 18 18 17 16 15
18 15 19 19 21 22 21 19 20 22 24 26 29 23 24 19 22 23 21 24 18 11 8 9 10 9 13 13 21 25 21 26 25 25 24 23 22 20 19 17 16 14 14
16 18 18 19 19 21 21 21 21 21 20 24 30 33 28 27 18 21 22 25 28 18 19 7 6 9 13 14 16 19 20 23 24 24 23 23 22 19 17 16 15 15 15
17 20 19 17 15 15 16 19 19 18 21 18 17 26 25 26 19 15 22 24 24 25 20 5 5 9 13 16 19 21 22 23 23 23 23 22 19 19 17 16 14 13 14
19 20 18 19 17 16 17 17 17 17 19 20 23 25 26 26 28 11 16 22 22 20 18 6 6 15 11 18 18 18 16 17 17 20 20 20 18 18 15 15 14 13 12
17 18 21 19 19 18 17 18 18 17 20 21 19 17 27 21 27 23 12 24 24 19 21 22 16 6 9 13 16 18 14 13 15 16 16 16 16 14 15 14 13 12 11
19 19 18 20 20 18 18 18 18 18 18 19 22 22 20 27 29 21 10 16 23 21 25 21 13 5 6 14 13 12 14 12 12 14 12 12 12 12 12 12 12 10 8
19 21 20 19 19 18 18 19 19 19 18 15 22 22 25 26 28 24 17 14 19 25 23 22 16 12 11 9 10 17 11 7 10 8 6 6 7 7 10 10 10 8 8
17 20 20 19 19 19 19 19 18 18 19 19 17 23 21 22 27 22 20 19 20 21 23 22 21 11 13 16 17 10 8 10 4 3 6 6 6 6 7 10 8 7 5
17 16 17 18 19 17 18 23 20 19 18 19 18 17 20 31 29 24 21 24 24 24 20 16 16 22 19 17 14 18 16 9 6 2 5 6 5 8 10 8 8 6 3
16 17 15 15 13 10 11 22 25 15 15 14 16 16 11 15 25 24 24 23 18 16 24 22 31 20 19 21 21 19 14 10 7 8 8 7 4 7 5 9 9 4 4
20 18 16 14 12 5 6 13 17 13 11 8 7 7 15 17 22 29 24 21 20 17 11 13 18 16 15 20 19 18 20 18 14 9 3 5 4 4 2 8 7 5 5
17 17 15 14 13 10 13 15 20 16 16 15 14 12 10 11 21 34 32 30 29 27 29 34 37 33 30 26 23 25 20 20 7 3 3 4 2 3 4 5 5 8 5
19 19 17 14 15 15 12 15 17 19 20 19 19 18 19 20 16 23 33 32 32 22 27 29 27 30 24 23 18 14 15 15 13 5 2 4 4 3 5 2 3 6 8
Wind_Direction
181 177 168 173 171 163 168 173 180 187 178 179 201 192 155 143 140 148 155 148 145 145 148 149 153 151 148 146 144 145 141 144 138 133 128 134 130 124 117 113 107 97 90
178 175 168 172 174 173 173 172 174 186 179 179 193 263 155 153 150 154 151 153 149 150 154 153 154 155 154 155 152 148 149 152 145 137 137 140 133 127 122 118 112 103 87
179 176 168 174 178 172 167 163 168 172 186 154 191 246 169 154 152 157 152 152 157 158 158 155 158 160 161 158 157 154 159 162 151 150 155 148 141 134 130 131 120 117 85
178 173 171 173 180 171 170 168 163 157 166 182 159 219 209 154 157 159 157 154 158 162 165 162 161 163 161 165 165 160 162 161 159 156 160 155 151 151 156 150 152 167 326
178 175 171 170 165 167 167 162 165 169 178 187 194 231 199 161 162 155 161 153 161 161 160 168 164 163 167 171 175 170 169 169 170 168 168 167 171 178 182 184 207 237 256
177 170 165 162 163 161 164 166 171 173 181 188 200 212 239 178 160 157 162 162 169 167 166 171 170 172 173 170 181 180 176 177 181 177 177 177 190 198 206 210 226 243 257
179 170 164 161 165 170 172 171 173 181 186 178 162 170 224 237 158 162 165 169 176 175 174 177 177 173 178 176 186 190 188 186 187 187 186 193 203 206 217 225 237 251 260
181 173 171 169 172 172 171 173 175 180 182 175 187 162 198 216 181 166 170 173 178 177 180 182 183 183 178 179 190 198 201 194 189 189 197 207 211 217 225 232 241 254 268
193 182 177 173 172 177 180 181 182 179 185 187 183 176 162 193 172 180 175 178 176 176 183 183 190 186 181 184 191 198 207 217 205 195 206 208 218 230 241 265 341 7 356
186 188 183 176 173 181 182 185 186 186 180 189 194 218 208 155 167 180 175 175 179 179 179 183 192 191 186 187 192 197 200 204 205 203 95 84 81 74 62 40 11 1 33
186 176 176 173 182 185 184 185 189 189 193 187 196 197 213 177 176 179 181 179 180 183 182 183 193 190 189 183 185 195 203 201 184 150 117 109 108 103 101 92 94 87 83
188 183 180 178 183 183 183 187 187 198 198 200 200 199 198 186 184 178 177 186 190 194 181 181 188 145 123 123 133 176 182 169 137 119 110 105 105 112 104 104 95 91 86
194 188 186 190 188 189 184 197 201 205 204 206 200 200 201 198 187 178 170 183 184 168 164 64 75 122 116 104 96 102 109 112 109 106 105 101 100 99 98 97 93 88 85
195 188 195 196 190 195 194 197 201 205 207 208 206 205 195 193 190 181 178 171 169 174 166 142 43 79 102 104 103 97 93 100 102 103 102 100 97 93 94 92 90 87 86
181 180 180 185 182 189 194 197 203 210 212 216 210 198 194 196 191 187 181 181 175 174 182 164 124 96 104 103 102 100 98 100 102 104 104 104 102 97 93 88 86 90 90
186 182 181 182 178 179 189 198 210 217 219 222 211 200 194 193 192 200 185 185 186 186 170 125 92 124 113 107 109 105 107 103 100 100 101 100 98 97 95 92 87 93 91
184 179 190 186 189 196 204 198 210 214 216 219 209 202 193 185 191 195 201 186 182 184 156 99 101 120 105 118 113 106 109 106 105 106 106 109 108 107 102 98 96 97 93
187 182 180 184 184 197 200 202 209 212 215 209 204 203 194 183 192 209 196 198 180 156 150 143 140 129 123 123 117 113 110 106 111 112 114 115 114 119 113 102 98 96 89
187 180 183 184 184 197 200 205 209 207 211 207 203 199 194 191 189 203 189 194 166 144 148 149 139 125 116 132 118 109 112 110 108 118 120 120 122 122 121 105 98 99 90
188 183 182 191 187 194 205 207 206 208 209 209 205 202 204 200 196 195 170 157 146 137 137 139 125 136 135 136 132 135 128 118 125 134 131 149 148 143 134 119 117 104 91
190 181 184 193 192 193 201 203 206 207 205 207 205 208 203 195 192 178 172 151 149 138 138 141 137 152 146 160 172 161 133 130 118 139 160 170 167 185 181 140 115 106 89
204 183 187 192 197 198 205 200 198 205 206 206 206 207 208 203 195 177 172 160 157 145 150 149 153 170 168 172 159 159 145 144 149 199 153 145 138 130 133 139 131 116 62
182 172 159 160 159 168 199 208 204 204 204 209 211 192 180 172 155 142 118 109 103 135 159 164 166 177 160 175 154 152 151 133 125 151 143 126 124 130 142 148 141 113 47
166 161 155 154 151 128 153 163 153 133 119 97 103 152 174 155 142 136 131 108 91 78 104 115 138 136 133 144 140 137 126 113 99 81 111 134 168 131 100 140 133 80 37
156 151 145 145 140 120 122 128 123 112 99 83 78 87 110 126 134 128 125 108 96 87 87 97 102 105 102 106 119 119 131 129 110 101 47 128 115 117 110 107 93 37 16
151 131 122 118 120 120 116 117 118 120 109 98 78 74 91 102 107 126 123 121 108 112 108 97 89 89 91 92 92 117 136 124 119 133 181 132 119 129 144 119 60 25 1